Lexington Weather

Lexington, Massachusetts, USA

32°F
11/15/2019 3:25am 
  • Lexington Conditions: Clear
  • Temperature: 32.0°F / 0.0°CColder 0.2°F than last hour.
  • Dew Point: 28.9°FDecreased 0.9°Fsince last hour.
  • Relative Humidity: 88%Decreased 3.0% since last hour.
  • Wind: Calm, 10-min avg: Calm, gust: 4 mph
  • Barometer: 30.16 inFalling 0.02  inHg/hr Falling Slowly
  • Visibility: 10 miles
  • Snow Today: 0.0 in
  •   

Regional Weather Roundup
for Boston / Norton, MA

        
000
ASUS41 KBOX 140610
RWRBOX

REGIONAL WEATHER ROUNDUP
NATIONAL WEATHER SERVICE BOSTON/NORTON MA
100 AM EST THU NOV 14 2019

NOTE:  "FAIR" INDICATES FEW OR NO CLOUDS BELOW 12,000 FEET WITH NO 
SIGNIFICANT WEATHER AND/OR OBSTRUCTIONS TO VISIBILITY.

MAZALL-140700-
EASTERN MASSACHUSETTS
  
CITY           SKY/WX    TMP DP  RH WIND       PRES   REMARKS
BOSTON         FAIR      24   6  46 NW9       30.47S WCI  14          
6HR MIN TEMP:  24; 6HR MAX TEMP:  28;                                

BEVERLY        FAIR      18   8  65 NW6       30.45S WCI  10          
LAWRENCE       FAIR      17   9  70 CALM      30.48R                  
BEDFORD        FAIR      15   8  73 CALM      30.46R                  
BLUE HILL        N/A     18   6  59 NW7       30.41R WCI   9          
NORWOOD        FAIR      16  10  77 CALM      30.47R                  
MARSHFIELD     FAIR      21  10  63 W6        30.46R WCI  14          
PLYMOUTH       FAIR      20   8  60 W8        30.45S WCI  10          
TAUNTON        FAIR      14   9  80 CALM      30.46R                  
NEW BEDFORD    FAIR      19   8  62 CALM      30.46R                  
$$

MAZALL-140700-
CAPE COD AND THE ISLANDS
  
CITY           SKY/WX    TMP DP  RH WIND       PRES   REMARKS
FALMOUTH       PTCLDY    21   7  53 NW7       30.44R WCI  13          
HYANNIS        FAIR      24  11  57 SW3       30.43R                  
CHATHAM        FAIR      25  17  72 CALM      30.43S                  
PROVINCETOWN   MOCLDY    28  18  66 N5        30.44R WCI  23          
NANTUCKET      FAIR      28  18  66 N3        30.43S                  
MARTHAS VNYRD  FAIR      22  12  65 NW6       30.45R WCI  14          
$$
 
MAZALL-140700-
CENTRAL AND WESTERN MASSACHUSETTS
  
CITY           SKY/WX    TMP DP  RH WIND       PRES   REMARKS
WORCESTER      FAIR      16   7  67 W5        30.39S WCI   9          
6HR MIN TEMP:  15; 6HR MAX TEMP:  19;                                

FITCHBURG      FAIR      16   8  71 N3        30.45S                  
ORANGE         MOCLDY    16  11  80 CALM      30.44S                  
SPRINGFIELD    FAIR      18  13  80 CALM      30.44F                  
WESTFIELD      FAIR      18  10  71 CALM      30.45S                  
NORTH ADAMS    CLOUDY    17   9  70 CALM      30.42S                  
PITTSFIELD     CLOUDY    17  10  74 CALM      30.35S                  
$$
 
RIZALL-140700-
RHODE ISLAND
  
CITY           SKY/WX    TMP DP  RH WIND       PRES   REMARKS
PROVIDENCE     FAIR      20  10  65 W3        30.48R                  
6HR MIN TEMP:  20; 6HR MAX TEMP:  25;                                

NEWPORT        FAIR      24   6  46 N7        30.46R WCI  16          
BLOCK ISLAND   FAIR      25  13  60 N6        30.47R WCI  18          
SMITHFIELD     FAIR      14   8  77 CALM      30.44R                  
WESTERLY       FAIR      20  10  65 CALM      30.48R                  
$$
 
CTZALL-140700-
CONNECTICUT
  
CITY           SKY/WX    TMP DP  RH WIND       PRES   REMARKS
BRADLEY INTL   CLOUDY    20  10  65 CALM      30.45F                  
6HR MIN TEMP:  20; 6HR MAX TEMP:  24;                                

HARTFORD       FAIR      21  12  68 CALM      30.47F                  
BRIDGEPORT     FAIR      25   8  48 NE8       30.46F WCI  16          
DANBURY        FAIR      19  10  68 CALM      30.44F                  
GROTON         FAIR      21  12  68 NE5       30.48R WCI  15          
NEW HAVEN      FAIR      25   9  50 NE6       30.46F WCI  18          
CHESTER        FAIR      19   9  63 CALM      30.44F                  
MERIDEN        FAIR      18  11  74 CALM      30.46F                  
WILLIMANTIC    FAIR      17  10  74 CALM      30.47S                  
OXFORD         FAIR      19   8  62 CALM      30.41F                  
$$

MEZ002-015-021-024-NHZ003-005-008-011-012-014-VTZ005-008-140700-
NORTHERN NEW ENGLAND
  
CITY           SKY/WX    TMP DP  RH WIND       PRES   REMARKS
PORTLAND ME    FAIR      15   7  70 CALM      30.45F                  
6HR MIN TEMP:  14; 6HR MAX TEMP:  20;                                

BANGOR ME      NOT AVBL                                               
CONCORD NH     FAIR      11   7  84 CALM      30.44S                  
MANCHESTER NH  MOCLDY    17   9  70 CALM      30.44S                  
NASHUA NH      FAIR      13   8  81 NW5       30.47R WCI   5          
PORTSMOUTH NH  MOCLDY    17   7  64 NW3       30.44S                  
JAFFREY NH     FAIR      14   8  77 CALM      30.38S                  
KEENE NH       FAIR      14  11  87 CALM      30.44S                  
BURLINGTON VT  CLOUDY    16   8  71 E3        30.41S                  
MT. WASHINGTON MOCLDY     3 -22  30 NE7         N/A  WCI  -9          
$$

NYZ052-076-140700-
EASTERN NEW YORK
  
CITY           SKY/WX    TMP DP  RH WIND       PRES   REMARKS
ALBANY         CLOUDY    22  12  65 CALM      30.44S                  
6HR MIN TEMP:  19; 6HR MAX TEMP:  22;                                

NEW YORK CITY  MOCLDY    30   8  39 E5        30.46R WCI  25          
6HR MIN TEMP:  30; 6HR MAX TEMP:  32;                                

$$
 
ANZALL-140700-
MARINE OBSERVATIONS
  
STATION/POSITION TIME  TEMP    WIND        PRES    VSBY  WAVE
                       AIR SEA DIR/SP/G                  HT/PER
                 (UTC) (F)     (DEG/KT/KT) (MB)    (MI)  (FT/S)
BOSTON BUOY      0550   28 52  340/  8/ 12 1030.4R         2/ 3
BUZZARDS BAY     0500   26     360/ 15/ 18 1031.3R
NANTUCKET SOUND  0540      50                N/A
MASS BAY-STELLWA 0504   29 51  340/  8/ 12 1030.4R  1 7/8  2/ 5
ISLE OF SHOALS   0500   24     340/  6/  9 1030.8S
S OF BLOCK IS    0600      58                N/A           3/14
$$

......................KEY.........................
  SKY/WX - SKY CONDITION/PRESENT WEATHER
  TMP    - TEMPERATURE IN FAHRENHEIT
  DWPT   - DEWPOINT IN FAHRENHEIT
  RH     - RELATIVE HUMIDITY IN PERCENT
  WIND   - DIRECTION AND SPEED IN MPH
  PRES   - MEAN SEA LEVEL PRESSURE IN INCHES OF HG
  WCI    - WIND CHILL INDEX
  VSB    - VISIBILITY IN MILES
  HX     - HEAT INDEX
  TC     - TEMPERATURE IN CELSIUS
  VRB    - VARIABLE WIND DIRECTION
  N/A    - NOT AVAILABLE
  
      

Other recent Regional Weather Roundups

Fri Nov 15, 3:10am

Fri Nov 15, 3:00am

Fri Nov 15, 2:10am

Fri Nov 15, 2:00am

Fri Nov 15, 1:10am

Fri Nov 15, 1:00am

Fri Nov 15, 12:10am

Fri Nov 15, 12:00am

Thu Nov 14, 11:10pm

Thu Nov 14, 11:00pm

Thu Nov 14, 10:10pm

Thu Nov 14, 10:00pm

Thu Nov 14, 9:10pm

Thu Nov 14, 9:00pm

Thu Nov 14, 8:10pm

Thu Nov 14, 8:00pm

Thu Nov 14, 7:10pm

Thu Nov 14, 7:00pm

Thu Nov 14, 6:10pm

Thu Nov 14, 6:01pm

Thu Nov 14, 5:10pm

Thu Nov 14, 5:00pm

Thu Nov 14, 4:10pm

Thu Nov 14, 4:00pm

Thu Nov 14, 3:10pm

Thu Nov 14, 3:00pm

Thu Nov 14, 2:10pm

Thu Nov 14, 2:00pm

Thu Nov 14, 1:10pm

Thu Nov 14, 1:00pm

Thu Nov 14, 12:10pm

Thu Nov 14, 12:01pm

Thu Nov 14, 11:10am

Thu Nov 14, 11:00am

Thu Nov 14, 10:10am

Thu Nov 14, 10:01am

Thu Nov 14, 9:10am

Thu Nov 14, 9:00am

Thu Nov 14, 8:10am

Thu Nov 14, 8:00am

Thu Nov 14, 7:10am

Thu Nov 14, 7:00am

Thu Nov 14, 6:10am

Thu Nov 14, 6:00am

Thu Nov 14, 5:10am

Thu Nov 14, 5:00am

Thu Nov 14, 4:10am

Thu Nov 14, 4:00am

Thu Nov 14, 3:10am

Thu Nov 14, 3:00am

Thu Nov 14, 2:10am

Thu Nov 14, 2:00am

Thu Nov 14, 1:00am

Thu Nov 14, 12:10am

Thu Nov 14, 12:00am

Wed Nov 13, 11:10pm

Wed Nov 13, 11:00pm

Wed Nov 13, 10:10pm

Wed Nov 13, 10:00pm

Wed Nov 13, 9:10pm

Wed Nov 13, 9:00pm

Wed Nov 13, 8:10pm

Wed Nov 13, 8:00pm

Wed Nov 13, 7:10pm

Wed Nov 13, 7:00pm

Wed Nov 13, 6:10pm

Wed Nov 13, 6:01pm

Wed Nov 13, 5:10pm

Wed Nov 13, 5:00pm

Wed Nov 13, 4:10pm

Wed Nov 13, 4:00pm

Wed Nov 13, 3:10pm

Wed Nov 13, 3:01pm

Wed Nov 13, 2:10pm

Wed Nov 13, 2:01pm

Wed Nov 13, 1:10pm

Wed Nov 13, 1:00pm

Wed Nov 13, 12:10pm

Wed Nov 13, 12:01pm

Wed Nov 13, 11:10am

Wed Nov 13, 11:00am

Wed Nov 13, 10:10am

Wed Nov 13, 10:00am

Wed Nov 13, 9:10am

Wed Nov 13, 9:00am

Wed Nov 13, 8:10am

Wed Nov 13, 8:00am

Wed Nov 13, 7:10am

Wed Nov 13, 7:00am

Wed Nov 13, 6:10am

Wed Nov 13, 6:00am

Wed Nov 13, 5:10am

Wed Nov 13, 5:00am

Wed Nov 13, 4:10am

Wed Nov 13, 4:00am

Wed Nov 13, 3:10am

Wed Nov 13, 3:00am

Wed Nov 13, 2:10am

Wed Nov 13, 2:00am

Wed Nov 13, 1:10am

Wed Nov 13, 1:00am

Wed Nov 13, 12:10am

Wed Nov 13, 12:00am

Tue Nov 12, 11:10pm

Tue Nov 12, 11:00pm

Tue Nov 12, 10:10pm

Tue Nov 12, 10:00pm

Tue Nov 12, 9:10pm

Tue Nov 12, 9:00pm

Tue Nov 12, 8:10pm

Tue Nov 12, 8:00pm

Tue Nov 12, 7:10pm

Tue Nov 12, 7:01pm

Tue Nov 12, 6:10pm

Tue Nov 12, 6:01pm

Tue Nov 12, 5:10pm

Tue Nov 12, 5:01pm

Tue Nov 12, 4:10pm

Tue Nov 12, 4:01pm

Tue Nov 12, 3:10pm

Tue Nov 12, 3:00pm

Tue Nov 12, 2:10pm

Tue Nov 12, 2:00pm

Tue Nov 12, 1:10pm

Tue Nov 12, 1:00pm

Tue Nov 12, 12:10pm

Tue Nov 12, 12:00pm

Tue Nov 12, 11:10am

Tue Nov 12, 11:00am

Tue Nov 12, 10:10am

Tue Nov 12, 10:01am

Tue Nov 12, 9:10am

Tue Nov 12, 9:00am

Tue Nov 12, 8:10am

Tue Nov 12, 8:00am

Tue Nov 12, 7:10am

Tue Nov 12, 7:00am

Tue Nov 12, 6:10am

Tue Nov 12, 6:00am

Tue Nov 12, 5:10am

Tue Nov 12, 5:01am

Tue Nov 12, 4:10am

Tue Nov 12, 4:00am

Meta data:

ID: 38425d5a-5163-428b-a5d5-6b048ddb4abc
Link: https://api.weather.gov/products/38425d5a-5163-428b-a5d5-6b048ddb4abc